Voltar ao catálogo

CZ-3C DEB

AtivoGTO
NORAD 40207·DEBRIS·🇨🇳 China

Lançado Feb 24, 2012 de Xichang Satellite Launch Center

Loading…

TLE

ObsoletoSource: Space-Track

Época: Sep 11, 2026, 08:40 UTC

1 40207U 12008S   26254.36125535 -.00000201  00000-0  17037-3 0  9998
2 40207  19.1391 280.0233 7202543  76.8935 348.4259  2.24301892 97358

Acompanhe CZ-3C DEB em tempo real com AllMySat

Download on the App Store